星链-4771 (STARLINK-4771 )

导读 | 豆包AI

STARLINK-4771是美国SpaceX公司星链星座的成员卫星,于2022年9月19日发射入轨。作为低轨宽带通信卫星,它属于星链第一代组网卫星,依托氪工质霍尔推进实现轨道调整,配备自主避撞系统,服务全球偏远地区的高速互联网接入。它丰富了星链低轨通信网络,目前仍在轨提供宽带互联服务,预计服役期满后会主动离轨在大气层焚毁。

Basic Information
目录编号:
53833
目录名称:
STARLINK-4771
国际标识:
2022-114R
轨道中心:
EARTH
卫星名称:
星链-4771
卫星全名:
星链-4771 (STARLINK-4771 )
卫星状态:
在轨 (已飞行1273 天)
发射日期:
2022-09-19 UTC
国别 :
美国 (US)
星等 :
--
Orbit Information
数据来源 国际轨道数据 AOE轨道数据
星历时间 2026-03-15T04:38:08+0800
12小时前
查看轨道信息
2026-03-15T02:00:00+0800
15小时前
查看轨道信息
半长轴 6917.874km 6917.882km
偏心率 0.0001387 0.0001383
轨道倾角 53.218° 53.215°
近地点辐角 86.938° 80.059°
升交点赤经 280.789° 281.287°
平近点角 273.177° 43.223°
近地点 538.777km 538.788km
远地点 540.697km 540.702km
周期 95.437分钟 95.438分钟
每日圈数 15.088424 15.088397
Detailed Information
固有亮度:
5
最大亮度:
2.5
卫星平台:
Starlink v1.5
覆盖范围:
全球
运营商:
太空探索技术公司
运营商所在国:
美国
制造商(研发单位):
太空探索技术公司
制造商所在国:
美国
使用方式:
暂无
Satellite Introduction
星链(Starlink)计划是由太空探索技术公司(SpaceX)提出的一个巨型低轨卫星互联网星座项目,计划在2019年至2024年间在太空搭建由约1.2万颗卫星组成的“星链”网络,其中1584颗将部署在地球上空550千米处的近地轨道,并从2020年开始工作。该卫星仍在工作。
2D Orbit Map
3D Orbit Map
Orbit Altitude Analysis Chart
Orbit Inclination Analysis Chart
Orbit Comprehensive Analysis Chart
View Comprehensive Chart